Location: Ferchesar
(52.6477°N, 12.4298°E)
Time: 12:38:08
(UTC+01:00)

Transit 2A - Pass Details

Date: 13 December 2021
Orbit: 591 x 967 km, 66.7° (Epoch: 23 January)

Event Time Altitude Azimuth Distance (km) Brightness Sun altitude
Exits shadow 06:41:07 14° 315° (NW) 2,408 8.0 -12.9°
Maximum altitude 06:46:34 64° 238° (WSW) 1,054 6.5 -12.2°
Drops below altitude 10° 06:52:37 10° 159° (SSE) 2,598 9.4 -11.3°
Sets 06:55:04 0° 156° (SSE) 3,492 10.2 -11.0°
